Weather History for Hurlburt Field, FL

Change the Weather History Date:

Monday, January 20, 2014

  Actual Average Record
Temperature  
Mean Temperature 48 °F -  
Max Temperature 62 °F 59 °F 73 °F (1999)
Min Temperature 33 °F 40 °F 28 °F (2001)
Degree Days  
Heating Degree Days 18    
Moisture  
Dew Point 39 °F    
Average Humidity 67    
Maximum Humidity 83    
Minimum Humidity 50    
Precipitation  
Precipitation 0.00 in - - ()
Sea Level Pressure  
Sea Level Pressure 30.07 in    
Wind  
Wind Speed 4 mph (WNW)    
Max Wind Speed 12 mph    
Max Gust Speed 17 mph    
Visibility 10 miles    
Events      
Averages and records for this station are not official NWS values.
T = Trace of Precipitation, MM = Missing Value Source: NWS Daily Summary

Daily Weather History Graph

Daily Weather History Graph

Search for Another Location

Airport:

Trip Planner

Search our weather history database for the weather conditions in past years. The results will help you decide how hot, cold, wet, or windy it might be!

Date:

Astronomy

Jan. 20, 2014 Rise Set
Actual Time 6:43 AM CST 5:12 PM CST
Civil Twilight 6:17 AM CST 5:38 PM CST
Nautical Twilight 5:48 AM CST 6:07 PM CST
Astronomical Twilight 5:19 AM CST 6:36 PM CST
Moon 9:24 PM CST 9:02 AM CST
Length of Visible Light 11h 21m
Length of Day
10h 29m
Waning Gibbous, 82% of the Moon is Illuminated
Jan 20
Waning Gibbous
Jan 23
Last Quarter
Jan 30
New
Feb 6
First Quarter
Feb 14
Full

Hourly Weather History & Observations

Time (CST) Temp. Windchill Dew Point Humidity Pressure Visibility Wind Dir Wind Speed Gust Speed Precip Events Conditions
12:58 AM 37.6 °F - 32.2 °F 81% 30.13 in 10.0 mi North 2.3 mph - N/A   Clear
1:58 AM 38.1 °F 35.7 °F 32.2 °F 79% 30.12 in 10.0 mi North 3.5 mph - N/A   Clear
2:58 AM 36.7 °F - 31.3 °F 81% 30.12 in 10.0 mi North 2.3 mph - N/A   Clear
3:58 AM 40.3 °F - 31.5 °F 71% 30.12 in 10.0 mi Calm Calm - N/A   Clear
4:58 AM 36.7 °F - 31.5 °F 81% 30.12 in 10.0 mi Calm Calm - N/A   Clear
5:58 AM 34.3 °F - 29.5 °F 82% 30.12 in 10.0 mi North 2.3 mph - N/A   Clear
6:58 AM 33.8 °F - 29.1 °F 83% 30.12 in 10.0 mi North 2.3 mph - N/A   Clear
7:58 AM 40.6 °F - 35.6 °F 82% 30.12 in 10.0 mi North 1.2 mph - N/A   Clear
8:58 AM 54.7 °F - 39.0 °F 56% 30.14 in 10.0 mi Variable 3.5 mph - N/A   Clear
9:58 AM 60.4 °F - 45.1 °F 57% 30.14 in 10.0 mi Variable 5.8 mph - N/A   Clear
10:58 AM 61.7 °F - 47.5 °F 60% 30.12 in 10.0 mi WSW 9.2 mph - N/A   Clear
11:58 AM 62.1 °F - 47.1 °F 58% 30.09 in 10.0 mi SW 10.4 mph 17.3 mph N/A   Clear
12:58 PM 62.8 °F - 46.0 °F 54% 30.06 in 10.0 mi SW 11.5 mph 17.3 mph N/A   Clear
1:58 PM 62.8 °F - 46.9 °F 56% 30.03 in 10.0 mi WSW 10.4 mph - N/A   Clear
2:58 PM 61.9 °F - 42.8 °F 50% 30.02 in 10.0 mi WSW 10.4 mph - N/A   Clear
3:58 PM 59.7 °F - 43.5 °F 55% 30.02 in 10.0 mi SW 5.8 mph - N/A   Clear
4:58 PM 57.9 °F - 46.4 °F 65% 30.01 in 10.0 mi SW 4.6 mph - N/A   Clear
5:58 PM 55.6 °F - 44.1 °F 65% 30.01 in 10.0 mi SW 4.6 mph - N/A   Clear
6:58 PM 54.9 °F - 41.4 °F 60% 30.01 in 10.0 mi SW 4.6 mph - N/A   Partly Cloudy
7:58 PM 55.4 °F - 41.4 °F 59% 30.03 in 10.0 mi WSW 2.3 mph - N/A   Clear
8:58 PM 55.0 °F - 39.2 °F 55% 30.03 in 10.0 mi West 1.2 mph - N/A   Clear
9:58 PM 48.7 °F - 38.7 °F 68% 30.02 in 10.0 mi North 1.2 mph - N/A   Clear
10:58 PM 43.3 °F - 37.8 °F 81% 30.00 in 10.0 mi Calm Calm - N/A   Clear
11:58 PM 52.2 °F - 46.0 °F 80% 29.97 in 10.0 mi North 2.3 mph - N/A   Clear